Regional Weather Roundup
Issued by NWS

Home | Current Version | Previous Version | Text Only | Print | Product List | Glossary On
Versions: 1 2 3 4 5 6 7 8 9 10 11 12 13 14 15 16 17 18 19 20 21 22 23 24 25 26 27 28 29 30 31 32 33 34 35 36 37 38 39 40 41 42 43 44 45 46 47 48 49 50
000
ASMX46 KSGX 071111
RWRMX

MEXICAN WEATHER ROUNDUP
NATIONAL WEATHER SERVICE SAN DIEGO CA
300 AM PST WED DEC 07 2016

BAJA CALIFORNIA

CITY           SKY/WX    TMP DP  RH WIND       PRES   REMARKS
ENSENADA NW      N/A     57  32  39 NE6       30.03S
S.J. DEL CABO    N/A    N/A N/A N/A MISG        N/A
TIJUANA        PTCLDY    52  45  76 CALM      30.05

NORTHWESTERN MEXICO

CITY           SKY/WX    TMP DP  RH WIND       PRES   REMARKS
HERMOSILLO     PTCLDY    57  55  94 SE6       29.98S

NORTHEASTERN MEXICO

CITY           SKY/WX    TMP DP  RH WIND       PRES   REMARKS
MONCLOVA         N/A    N/A N/A N/A MISG        N/A
MONTERREY      CLEAR     52  46  82 W5        29.97S
NUEVO LAREDO   CLOUDY    54  46  76 CALM      30.01
REYNOSA          N/A    N/A N/A N/A MISG        N/A
TORREON        CLEAR     52  41  66 CALM      30.05
VICTORIA         N/A    N/A N/A N/A MISG        N/A

WESTERN MEXICO

CITY           SKY/WX    TMP DP  RH WIND       PRES   REMARKS
AGUASCALIENTES CLEAR     36  27  69 NE7       30.24  WCI  30
COLIMA           N/A    N/A N/A N/A MISG        N/A
DURANGO        CLEAR     30  23  74 SE3       30.22
GUADALAJARA    CLEAR     39  37  93 CALM      30.18R
MAZATLAN       CLEAR     54  52  94 NE3       29.95S
PTO. VALLARTA  CLEAR     61  59  94 NE3       29.94S
TEPIC            N/A    N/A N/A N/A MISG        N/A
URUAPAN          N/A    N/A N/A N/A MISG        N/A
ZACATECAS      CLEAR     32  21  64 SW7       30.24  WCI  26

CENTRAL MEXICO

CITY           SKY/WX    TMP DP  RH WIND       PRES   REMARKS
CUERNAVACA       N/A    N/A N/A N/A MISG        N/A
LEON           PTCLDY    41  32  70 CALM      30.28R
MEXICO CITY    PTCLDY    50  41  71 E6        30.31R
MORELIA        PTCLDY    39  37  93 CALM      30.23
POZA RICA        N/A    N/A N/A N/A MISG        N/A
PUEBLA         CLEAR     45  39  81 NW7       30.30
QUERETARO      PTCLDY    39  32  75 NW5       30.29R
S. LUIS POTOSI CLEAR     39  21  48 CALM      30.20  HAZE
TOLUCA         PTCLDY    37  36  93 NW3       30.37
VERACRUZ         N/A    N/A N/A N/A MISG        N/A

SOUTHERN MEXICO

CITY           SKY/WX    TMP DP  RH WIND       PRES   REMARKS
ACAPULCO         N/A    N/A N/A N/A MISG        N/A
B. DE HUATULCO   N/A    N/A N/A N/A MISG        N/A
MINATITLAN     CLEAR     73  73 100 CALM      29.90  FOG
PTO. ESCONDIDO   N/A    N/A N/A N/A MISG        N/A
TAPACHULA      MOCLDY    75  73  94 CALM      29.87R
VILLAHERMOSA   FOG       75  75 100 E8        29.93  VSB 1/4

YUCATAN PENINSULA

CITY           SKY/WX    TMP DP  RH WIND       PRES   REMARKS
CAMPECHE         N/A    N/A N/A N/A MISG        N/A
CANCUN         PTCLDY    77  77 100 SE7       29.96R
CHETUMAL         N/A    N/A N/A N/A MISG        N/A
C. DEL CARMEN    N/A    N/A N/A N/A MISG        N/A
COZUMEL        PTCLDY    75  73  94 CALM      29.95R
MERIDA         PTCLDY    75  73  94 E7        29.93R

$$





USA.gov is the U.S. government's official web portal to all federal, state and local government web resources and services.